• In Deutschland
  • Länderverzeichnis
  • Für 7 Tage
  • Wassertemperatur
  • Satellitenkarten
  • Wetterkarte
  • Widgets
  • user-avatar
    Anmelden

    Stündliche Wetter Pernik

    Heute, 18 November, Samstag

    Zeit Temperatur Niederschläge Wind Luftdruck Luftfeuchtigkeit
    00:00 +6°C° 0,1 mm 1 m/S 691 mmHg 92%
    01:00 +6°C° 0,1 mm 1 m/S 691 mmHg 92%
    02:00 +6°C° 0,1 mm 1 m/S 690 mmHg 93%
    03:00 +6°C° 0,2 mm 1 m/S 690 mmHg 93%
    04:00 +6°C° 0,2 mm 1 m/S 690 mmHg 93%
    05:00 +6°C° 0,2 mm 1 m/S 690 mmHg 93%
    06:00 +6°C° 0,3 mm 1 m/S 689 mmHg 92%
    07:00 +6°C° 0,3 mm 1 m/S 689 mmHg 92%
    08:00 +6°C° 0,3 mm 1 m/S 689 mmHg 92%
    09:00 +7°C° 0,2 mm 1 m/S 689 mmHg 88%
    10:00 +7°C° 0,2 mm 1 m/S 690 mmHg 84%
    11:00 +8°C° 0,2 mm 1 m/S 690 mmHg 80%
    12:00 +9°C° 0 mm 1 m/S 689 mmHg 78%
    13:00 +9°C° 0 mm 1 m/S 689 mmHg 75%
    14:00 +10°C° 0 mm 1 m/S 689 mmHg 73%
    15:00 +9°C° 0 mm 1 m/S 689 mmHg 76%
    16:00 +9°C° 0 mm 1 m/S 689 mmHg 80%
    17:00 +8°C° 0 mm 1 m/S 688 mmHg 84%
    18:00 +7°C° 0 mm 1 m/S 688 mmHg 86%
    19:00 +7°C° 0 mm 1 m/S 688 mmHg 88%
    20:00 +6°C° 0 mm 1 m/S 688 mmHg 91%
    21:00 +6°C° 0 mm 1 m/S 688 mmHg 91%
    22:00 +6°C° 0 mm 1 m/S 688 mmHg 92%
    23:00 +5°C° 0 mm 1 m/S 688 mmHg 93%

    Morgen, 19 November, Sonntag

    Zeit Temperatur Niederschläge Wind Luftdruck Luftfeuchtigkeit
    00:00 +5°C° 0 mm 1 m/S 688 mmHg 93%
    01:00 +5°C° 0 mm 1 m/S 688 mmHg 93%
    02:00 +5°C° 0 mm 1 m/S 688 mmHg 93%
    03:00 +5°C° 0 mm 1 m/S 688 mmHg 92%
    04:00 +5°C° 0 mm 1 m/S 687 mmHg 92%
    05:00 +5°C° 0 mm 1 m/S 687 mmHg 92%
    06:00 +4°C° 0 mm 1 m/S 687 mmHg 92%
    07:00 +4°C° 0 mm 1 m/S 687 mmHg 91%
    08:00 +4°C° 0 mm 1 m/S 687 mmHg 91%
    09:00 +4°C° 0 mm 2 m/S 688 mmHg 84%
    10:00 +5°C° 0 mm 2 m/S 688 mmHg 77%
    11:00 +6°C° 0 mm 2 m/S 688 mmHg 70%
    12:00 +7°C° 0 mm 2 m/S 688 mmHg 67%
    13:00 +7°C° 0 mm 2 m/S 687 mmHg 64%
    14:00 +7°C° 0 mm 2 m/S 687 mmHg 61%
    15:00 +6°C° 0 mm 2 m/S 687 mmHg 64%
    16:00 +6°C° 0 mm 2 m/S 686 mmHg 68%
    17:00 +6°C° 0 mm 1 m/S 686 mmHg 71%
    18:00 +5°C° 0 mm 1 m/S 686 mmHg 72%
    19:00 +5°C° 0 mm 1 m/S 686 mmHg 74%
    20:00 +4°C° 0 mm 1 m/S 686 mmHg 76%
    21:00 +4°C° 0 mm 1 m/S 686 mmHg 75%
    22:00 +4°C° 0 mm 1 m/S 686 mmHg 75%
    23:00 +3°C° 0 mm 1 m/S 686 mmHg 74%

    übermorgen, 20 November, Montag

    Zeit Temperatur Niederschläge Wind Luftdruck Luftfeuchtigkeit
    00:00 +3°C° 0,1 mm 1 m/S 687 mmHg 74%
    01:00 +2°C° 0,1 mm 2 m/S 687 mmHg 74%
    02:00 +2°C° 0,1 mm 2 m/S 687 mmHg 74%
    03:00 +2°C° 0,3 mm 2 m/S 687 mmHg 77%
    04:00 +1°C° 0,3 mm 2 m/S 687 mmHg 80%
    05:00 +1°C° 0,3 mm 2 m/S 687 mmHg 83%
    06:00 +1°C° 0,3 mm 2 m/S 688 mmHg 84%
    07:00 +1°C° 0,3 mm 2 m/S 688 mmHg 85%
    08:00 -1°C° 0,3 mm 2 m/S 689 mmHg 86%
    09:00 0°C° 0,1 mm 3 m/S 689 mmHg 81%
    10:00 -1°C° 0,1 mm 4 m/S 690 mmHg 76%
    11:00 0°C° 0,1 mm 4 m/S 690 mmHg 70%
    12:00 0°C° 0 mm 4 m/S 690 mmHg 69%
    13:00 0°C° 0 mm 4 m/S 690 mmHg 67%
    14:00 0°C° 0 mm 4 m/S 690 mmHg 66%
    15:00 0°C° 0 mm 4 m/S 690 mmHg 69%
    16:00 0°C° 0 mm 3 m/S 690 mmHg 72%
    17:00 +1°C° 0 mm 2 m/S 690 mmHg 75%
    18:00 -1°C° 0 mm 2 m/S 691 mmHg 78%
    19:00 -2°C° 0 mm 2 m/S 691 mmHg 81%
    20:00 -2°C° 0 mm 2 m/S 692 mmHg 85%
    21:00 -3°C° 0 mm 2 m/S 692 mmHg 85%
    22:00 -1°C° 0 mm 1 m/S 692 mmHg 85%
    23:00 -1°C° 0 mm 1 m/S 692 mmHg 86%

    21 November, Dienstag

    Zeit Temperatur Niederschläge Wind Luftdruck Luftfeuchtigkeit
    00:00 -1°C° 0 mm 1 m/S 692 mmHg 85%
    01:00 -1°C° 0 mm 1 m/S 692 mmHg 85%
    02:00 -1°C° 0 mm 1 m/S 692 mmHg 85%
    03:00 -2°C° 0 mm 1 m/S 692 mmHg 83%
    04:00 -2°C° 0 mm 1 m/S 692 mmHg 82%
    05:00 -2°C° 0 mm 1 m/S 692 mmHg 81%
    06:00 -1°C° 0 mm 1 m/S 692 mmHg 78%
    07:00 -1°C° 0 mm 1 m/S 692 mmHg 75%
    08:00 -1°C° 0 mm 1 m/S 692 mmHg 72%
    09:00 +1°C° 0 mm 1 m/S 692 mmHg 65%
    10:00 +2°C° 0 mm 2 m/S 692 mmHg 59%
    11:00 +4°C° 0 mm 2 m/S 692 mmHg 52%
    12:00 +5°C° 0 mm 2 m/S 692 mmHg 51%
    13:00 +6°C° 0 mm 2 m/S 692 mmHg 50%
    14:00 +7°C° 0 mm 2 m/S 691 mmHg 49%
    15:00 +6°C° 0 mm 2 m/S 691 mmHg 55%
    16:00 +4°C° 0 mm 2 m/S 691 mmHg 61%
    17:00 +3°C° 0 mm 2 m/S 690 mmHg 67%
    18:00 +2°C° 0 mm 2 m/S 691 mmHg 68%
    19:00 +2°C° 0 mm 2 m/S 691 mmHg 69%
    20:00 +2°C° 0 mm 1 m/S 691 mmHg 70%
    21:00 +2°C° 0 mm 1 m/S 691 mmHg 69%
    22:00 +2°C° 0 mm 1 m/S 691 mmHg 69%
    23:00 +2°C° 0 mm 1 m/S 692 mmHg 68%

    22 November, Mittwoch

    Zeit Temperatur Niederschläge Wind Luftdruck Luftfeuchtigkeit
    00:00 +2°C° 0 mm 1 m/S 692 mmHg 68%
    01:00 +2°C° 0 mm 1 m/S 692 mmHg 68%
    02:00 +2°C° 0 mm 1 m/S 691 mmHg 68%
    03:00 +2°C° 0 mm 1 m/S 691 mmHg 68%
    04:00 +2°C° 0 mm 1 m/S 691 mmHg 69%
    05:00 +2°C° 0 mm 1 m/S 691 mmHg 69%
    06:00 +2°C° 0 mm 1 m/S 692 mmHg 69%
    07:00 +2°C° 0 mm 1 m/S 692 mmHg 70%
    08:00 +3°C° 0 mm 1 m/S 692 mmHg 70%
    09:00 +5°C° 0 mm 1 m/S 693 mmHg 64%
    10:00 +7°C° 0 mm 1 m/S 693 mmHg 59%
    11:00 +9°C° 0 mm 1 m/S 693 mmHg 54%
    12:00 +10°C° 0 mm 1 m/S 693 mmHg 53%
    13:00 +11°C° 0 mm 1 m/S 693 mmHg 52%
    14:00 +12°C° 0 mm 1 m/S 693 mmHg 51%
    15:00 +10°C° 0 mm 1 m/S 693 mmHg 57%
    16:00 +9°C° 0 mm 1 m/S 693 mmHg 63%
    17:00 +7°C° 0 mm 1 m/S 692 mmHg 69%
    18:00 +7°C° 0 mm 1 m/S 693 mmHg 71%
    19:00 +6°C° 0 mm 1 m/S 693 mmHg 72%
    20:00 +6°C° 0 mm 1 m/S 693 mmHg 73%
    21:00 +5°C° 0 mm 1 m/S 693 mmHg 73%
    22:00 +5°C° 0 mm 1 m/S 693 mmHg 73%
    23:00 +5°C° 0 mm 1 m/S 693 mmHg 73%

    23 November, Donnerstag

    Zeit Temperatur Niederschläge Wind Luftdruck Luftfeuchtigkeit
    00:00 +5°C° 0 mm 1 m/S 694 mmHg 73%
    01:00 +5°C° 0 mm 1 m/S 694 mmHg 73%
    02:00 +5°C° 0 mm 1 m/S 694 mmHg 73%
    03:00 +5°C° 0 mm 1 m/S 693 mmHg 73%
    04:00 +5°C° 0 mm 1 m/S 693 mmHg 72%
    05:00 +4°C° 0 mm 1 m/S 693 mmHg 72%
    06:00 +5°C° 0 mm 1 m/S 694 mmHg 71%
    07:00 +5°C° 0 mm 1 m/S 694 mmHg 70%
    08:00 +5°C° 0 mm 1 m/S 694 mmHg 69%
    09:00 +7°C° 0 mm 1 m/S 695 mmHg 63%
    10:00 +9°C° 0 mm 1 m/S 695 mmHg 56%
    11:00 +12°C° 0 mm 1 m/S 696 mmHg 49%
    12:00 +13°C° 0 mm 1 m/S 695 mmHg 47%
    13:00 +14°C° 0 mm 1 m/S 695 mmHg 45%
    14:00 +14°C° 0 mm 1 m/S 695 mmHg 42%
    15:00 +13°C° 0 mm 1 m/S 695 mmHg 48%
    16:00 +11°C° 0 mm 1 m/S 695 mmHg 54%
    17:00 +9°C° 0 mm 1 m/S 694 mmHg 60%
    18:00 +9°C° 0 mm 1 m/S 695 mmHg 62%
    19:00 +8°C° 0 mm 1 m/S 695 mmHg 64%
    20:00 +7°C° 0 mm 1 m/S 695 mmHg 65%
    21:00 +7°C° 0 mm 1 m/S 695 mmHg 65%
    22:00 +7°C° 0 mm 1 m/S 695 mmHg 65%
    23:00 +6°C° 0 mm 1 m/S 695 mmHg 65%
    Mehr zeigen